CW4352 Weather Reports


time (UTC)temp
F
wind
direction
speed
knots
gust
knots
rain 1hr
in
rain 24hr
in
rain mn
in
humidity
%
barometer
mb
20260831121204 90 19 1.7 5.2 0.00 0.00 0.00 35 1009.5
20260831113205 89 51 1.7 4.3 0.00 0.00 0.00 35 1009.8
20260831110705 88 16 1.7 4.3 0.00 0.00 0.00 37 1009.8
20260831110205 88 37 2.6 8.7 0.00 0.00 0.00 38 1010.0
20260831103204 88 326 2.6 6.1 0.00 0.00 0.00 38 1010.0
20260831101205 88 50 1.7 4.3 0.00 0.00 0.00 37 1010.0
20260831094204 88 44 0.9 2.6 0.00 0.00 0.00 38 1010.0
20260831093204 87 44 1.7 2.6 0.00 0.00 0.00 38 1010.2
20260831091704 86 26 0.9 2.6 0.00 0.00 0.00 38 1010.2
20260831084204 84 9 0.0 1.7 0.00 0.00 0.00 40 1010.1
20260831083704 84 9 0.9 2.6 0.00 0.00 0.00 41 1010.1
20260831083205 84 9 1.7 2.6 0.00 0.00 0.00 40 1010.1
20260831081704 84 5 1.7 2.6 0.00 0.00 0.00 40 1010.1
20260831081204 84 5 0.9 1.7 0.00 0.00 0.00 40 1010.1
20260831080704 84 5 0.0 1.7 0.00 0.00 0.00 41 1010.1
20260831074705 82 0 0.0 1.7 0.00 0.00 0.00 45 1010.1
20260831073704 81 0 0.0 0.9 0.00 0.00 0.00 45 1010.0
20260831071704 79 0 0.0 0.0 0.00 0.00 0.00 47 1010.0
20260831070204 78 267 0.9 2.6 0.00 0.00 0.00 47 1010.0
20260831064704 76 267 0.9 1.7 0.00 0.00 0.00 49 1009.9
20260831063705 75 267 0.9 1.7 0.00 0.00 0.00 50 1009.9
20260831061704 74 267 1.7 2.6 0.00 0.00 0.00 51 1009.8
20260831061205 73 267 1.7 5.2 0.00 0.00 0.00 51 1009.5
20260831060705 73 267 4.3 7.0 0.00 0.00 0.00 52 1009.5
20260831060204 72 267 2.6 5.2 0.00 0.00 0.00 54 1009.5
20260831053705 71 267 0.9 2.6 0.00 0.00 0.00 57 1009.5
20260831053204 71 267 2.6 4.3 0.00 0.00 0.00 56 1009.5
20260831051705 71 267 1.7 2.6 0.00 0.00 0.00 57 1009.5
20260831051205 71 267 2.6 2.6 0.00 0.00 0.00 57 1009.5
20260831044705 71 267 2.6 4.3 0.00 0.00 0.00 56 1009.5
20260831044204 71 267 2.6 2.6 0.00 0.00 0.00 56 1009.5
20260831043705 71 267 2.6 4.3 0.00 0.00 0.00 56 1009.3
20260831043205 71 267 1.7 6.1 0.00 0.00 0.00 56 1009.3
20260831041704 71 267 0.9 2.6 0.00 0.00 0.00 57 1009.3
20260831041205 71 267 0.9 2.6 0.00 0.00 0.00 57 1009.3
20260831034704 71 267 1.7 5.2 0.00 0.00 0.00 55 1009.2
20260831034204 71 267 1.7 4.3 0.00 0.00 0.00 55 1009.5
20260831033205 71 267 1.7 7.8 0.00 0.00 0.00 54 1009.5
20260831031205 72 284 4.3 6.1 0.00 0.00 0.00 54 1009.5
20260831030704 71 286 3.5 6.1 0.00 0.00 0.00 55 1009.5
20260831030204 71 286 3.5 5.2 0.00 0.00 0.00 55 1009.5
20260831024706 71 286 1.7 2.6 0.00 0.00 0.00 58 1009.6
20260831020704 71 287 1.7 5.2 0.00 0.00 0.00 57 1009.9
20260831020205 71 287 4.3 4.3 0.00 0.00 0.00 58 1009.9
20260831014704 72 287 0.9 2.6 0.00 0.00 0.00 56 1009.9
20260831014204 72 287 1.7 2.6 0.00 0.00 0.00 56 1009.9
20260831013705 72 287 0.9 2.6 0.00 0.00 0.00 56 1009.8
20260831011204 72 287 0.9 2.6 0.00 0.00 0.00 56 1009.8
20260831010705 72 287 0.9 2.6 0.00 0.00 0.00 56 1009.8
20260831004705 73 287 1.7 2.6 0.00 0.00 0.00 57 1010.0
20260831001704 73 287 2.6 4.3 0.00 0.00 0.00 55 1010.0
20260831001204 73 287 1.7 2.6 0.00 0.00 0.00 55 1010.0
20260831000204 73 287 1.7 2.6 0.00 0.00 0.00 55 1010.0
20260830234704 74 287 0.9 2.6 0.00 0.00 0.00 54 1010.0
20260830233704 74 287 0.9 2.6 0.00 0.00 0.00 54 1010.0
20260830230706 74 287 2.6 5.2 0.00 0.00 0.00 53 1010.0
20260830221704 74 5 1.7 2.6 0.00 0.00 0.00 54 1009.8
20260830220705 75 5 0.9 2.6 0.00 0.00 0.00 54 1009.8
20260830214704 75 5 0.9 1.7 0.00 0.00 0.00 53 1009.8
20260830213704 75 5 0.9 1.7 0.00 0.00 0.00 53 1009.7
20260830213204 75 5 0.9 2.6 0.00 0.00 0.00 53 1009.5
20260830211204 76 5 0.9 2.6 0.00 0.00 0.00 53 1009.5
20260830201703 77 5 1.7 2.6 0.00 0.00 0.00 50 1009.5
20260830200203 77 5 0.9 1.7 0.00 0.00 0.00 50 1009.5
20260830193703 77 5 0.9 1.7 0.00 0.00 0.00 48 1009.5
20260830191703 79 5 0.9 1.7 0.00 0.00 0.00 46 1009.3
20260830191203 79 5 0.0 0.0 0.00 0.00 0.00 46 1009.3
20260830190703 80 5 0.0 0.0 0.00 0.00 0.00 45 1009.3
20260830184203 82 5 0.0 0.0 0.00 0.00 0.00 42 1009.0
20260830183703 82 5 0.0 0.0 0.00 0.00 0.00 41 1009.0
20260830183204 83 5 0.0 0.0 0.00 0.00 0.00 41 1009.0
20260830181203 84 5 0.0 0.0 0.00 0.00 0.00 38 1008.5
20260830174205 85 5 1.7 2.6 0.00 0.00 0.00 36 1008.5
20260830171205 86 355 1.7 2.6 0.00 0.00 0.00 35 1008.5
20260830170705 87 4 1.7 2.6 0.00 0.00 0.00 35 1008.5
20260830164205 88 11 2.6 4.3 0.00 0.00 0.00 34 1008.6
20260830161205 88 27 1.7 2.6 0.00 0.00 0.00 35 1008.6
20260830160205 88 9 0.9 6.1 0.00 0.00 0.00 35 1008.7
20260830154205 89 36 1.7 4.3 0.00 0.00 0.00 33 1008.7
20260830153705 89 9 0.9 2.6 0.00 0.00 0.00 34 1008.7
20260830151205 89 17 1.7 7.0 0.00 0.00 0.00 30 1008.9
20260830150705 89 5 0.9 2.6 0.00 0.00 0.00 31 1008.9
20260830144205 90 53 1.7 5.2 0.00 0.00 0.00 27 1009.0
20260830143205 90 51 1.7 2.6 0.00 0.00 0.00 29 1009.0
20260830141705 89 22 0.9 2.6 0.00 0.00 0.00 27 1009.0
20260830140205 89 12 1.7 4.3 0.00 0.00 0.00 30 1009.0
20260830134205 89 47 0.9 2.6 0.00 0.00 0.00 29 1009.5
20260830133205 89 36 0.9 5.2 0.00 0.00 0.00 29 1009.5
20260830131705 89 51 1.7 7.0 0.00 0.00 0.00 28 1009.9
20260830131205 89 16 1.7 4.3 0.00 0.00 0.00 27 1009.9
20260830130206 89 46 0.9 2.6 0.00 0.00 0.00 30 1009.9
20260830123705 88 33 0.0 2.6 0.00 0.00 0.00 28 1009.9
20260830123205 88 43 0.9 2.6 0.00 0.00 0.00 28 1010.0